[[{"header":{"parameterUnit":"m.s-1","parameterCategory":1,"la1":30.2991,"la2":30.254,"lo1":-89.0895,"lo2":-89.0444,"dy":0.0017,"dx":0.0017,"nx":28,"ny":28,"refTime":"2024-06-23T09:00:00:Z","depth":0,"parameterNumber":2,"parameterNumberName":"U-component_of_WINDS"},"data":[0,0,0,0,0,0,0,0,0,0,0,0,0,0,0,0,0,0,0,0,0,0,0,0,0,0,0,0,0,0,0,0,0,0,0,0,0,0,0,0,0,0,0,0,0,0,0,0,0,0,0,0,0,0,0,0,0,0,0.1675,0.1677,0,0.1777,0.1778,0.1779,0.1804,0.1804,0.1803,0.1802,0.1908,0.1911,0.1914,0,0,0,0,0,0,0,0,0,0,0,0,0,0.1504,0.1507,0.1675,0.1677,0.1678,0.1777,0.1778,0.1779,0.1804,0.1804,0.1803,0.1802,0.1907,0.1911,0.1915,0,0,0,0,0,0,0,0,0,0,0,0,0,0.1589,0.1508,0.1675,0.1702,0.1706,0.1776,0.1778,0.178,0.1805,0.1804,0.1803,0.1802,0.1905,0.191,0.1915,0.1967,0,0,0.1931,0.1933,0,0,0,0,0,0,0,0,0.1584,0.1595,0.1697,0.17,0.1704,0.1777,0.1756,0.1843,0.1805,0.1767,0.1802,0.1801,0.1865,0.1874,0.1895,0.1972,0.1976,0.1932,0.1935,0.1937,0.1938,0,0,0,0,0,0,0,0.1578,0.1591,0.1716,0.1698,0.1703,0.171,0.1721,0.1773,0.182,0.177,0.1772,0.1784,0.1867,0.189,0.1897,0.1978,0.1931,0.1936,0.1939,0.1941,0.2101,0.2103,0,0,0,0,0,0,0.1568,0.1586,0.1712,0.1719,0.1641,0.1713,0.1726,0.1755,0.182,0.1829,0.1785,0.1785,0.1881,0.1891,0.1901,0.1965,0.1937,0.1942,0.1945,0.21,0.2102,0.2103,0,0,0,0,0,0,0.1564,0.1579,0.1708,0.1653,0.167,0.1717,0.175,0.1757,0.178,0.1831,0.184,0.1799,0.1881,0.1894,0.195,0.1969,0.1944,0.1949,0.2099,0.2101,0.2102,0.2094,0,0,0,0,0,0,0.1559,0.1577,0.1597,0.1653,0.1673,0.1755,0.1751,0.176,0.1789,0.179,0.1847,0.1855,0.1881,0.1942,0.1955,0.1976,0.1953,0.2097,0.21,0.2102,0.2093,0.2095,0.2097,0,0,0,0,0,0.1553,0.1591,0.1598,0.1613,0.1699,0.1756,0.1767,0.1796,0.179,0.181,0.1843,0.1853,0.1965,0.1948,0.1963,0.1985,0.2096,0.2099,0.2102,0.2092,0.2095,0.2097,0,0,0,0,0,0,0.1536,0.1599,0.1607,0.1665,0.1705,0.176,0.1787,0.1799,0.1842,0.1841,0.1875,0.1888,0.1942,0.1969,0.1949,0.2038,0.2031,0.2036,0.2018,0.2021,0.2024,0.2016,0.1957,0,0,0,0,0,0.1539,0.1581,0.1633,0.1679,0.1699,0.1739,0.1765,0.1784,0.1827,0.1844,0.1881,0.1923,0.1967,0.1996,0.204,0.2097,0.2109,0.2119,0.2122,0.2123,0.2128,0.2159,0.2164,0.2112,0.2112,0.2112,0,0,0.1546,0.1586,0.161,0.1677,0.171,0.1752,0.1753,0.1798,0.1829,0.1851,0.1906,0.1934,0.1983,0.204,0.2067,0.2064,0.2145,0.2127,0.2128,0.2131,0.2163,0.2168,0.2172,0.2114,0.2113,0.2113,0,0,0.158,0.1614,0.1656,0.1689,0.1739,0.1766,0.1776,0.1829,0.1849,0.1904,0.1921,0.1959,0.2035,0.2069,0.2096,0.2142,0.2153,0.2155,0.2167,0.2198,0.2202,0.2206,0.2222,0.2227,0.216,0.216,0.216,0,0.1583,0.1646,0.1676,0.172,0.1748,0.1769,0.1812,0.1843,0.1904,0.1924,0.192,0.2016,0.205,0.2114,0.2125,0.2147,0.2159,0.2149,0.2199,0.2203,0.2207,0.2223,0.2228,0.216,0.216,0.216,0.216,0,0.1647,0.1691,0.1718,0.1777,0.1809,0.1851,0.1887,0.1916,0.1932,0.1959,0.2015,0.2057,0.2109,0.2126,0.2142,0.2192,0.2189,0.2192,0.2185,0.2211,0.2227,0.2233,0.2159,0.216,0.216,0.216,0,0,0.1673,0.1747,0.1757,0.1783,0.184,0.1874,0.1918,0.1968,0.1992,0.2034,0.2072,0.2135,0.2137,0.2168,0.2188,0.2215,0.2248,0.2214,0.2216,0.2219,0.2305,0.2303,0.2309,0.2255,0.2257,0.2258,0.2301,0,0.1714,0.1792,0.182,0.1884,0.1925,0.1945,0.1983,0.2022,0.2048,0.2086,0.2116,0.216,0.216,0.2178,0.2206,0.2238,0.2266,0.2235,0.229,0.2292,0.2277,0.2317,0.2315,0.2354,0.2307,0.2308,0.2309,0,0.1772,0.1814,0.1882,0.1933,0.1951,0.1984,0.2033,0.2069,0.2113,0.2131,0.2164,0.2182,0.2229,0.2219,0.2283,0.2262,0.2286,0.2305,0.2307,0.2313,0.2302,0.2324,0.2367,0.2372,0.2319,0.2318,0.2317,0,0.1783,0.1857,0.1907,0.193,0.199,0.2013,0.204,0.2083,0.2111,0.2154,0.2172,0.222,0.2245,0.2281,0.2312,0.2302,0.2373,0.2366,0.2388,0.2388,0.2402,0.2401,0.2449,0.2418,0.2418,0.2418,0.2418,0,0.1826,0.1866,0.1913,0.1944,0.1991,0.2022,0.2067,0.2095,0.2133,0.217,0.219,0.2224,0.2262,0.2301,0.2325,0.2374,0.2386,0.2401,0.2407,0.2399,0.2397,0.2415,0.2413,0.242,0.2419,0.2419,0.2419,0,0.1846,0.188,0.1936,0.1988,0.2003,0.2034,0.208,0.211,0.2137,0.2183,0.2196,0.2238,0.2285,0.2319,0.2379,0.2395,0.2448,0.2454,0.2433,0.2435,0.2456,0.2453,0.2517,0.2527,0.249,0.249,0.249,0,0.1871,0.1903,0.1959,0.1984,0.2011,0.2052,0.2081,0.2113,0.2142,0.2195,0.2219,0.2267,0.2307,0.2381,0.2417,0.2464,0.2471,0.249,0.2478,0.2469,0.247,0.2468,0.2471,0.2492,0.2492,0.2492,0.2492,0,0.191,0.1925,0.1966,0.2012,0.2046,0.2084,0.2123,0.2143,0.2182,0.2214,0.2261,0.2292,0.2354,0.2401,0.2451,0.2478,0.2492,0.2496,0.2503,0.2495,0.2481,0.2489,0.2437,0.2494,0.2494,0.2494,0.2494,0.2494,0.1934,0.1963,0.2006,0.2051,0.2083,0.2119,0.215,0.218,0.2221,0.2273,0.2289,0.2339,0.2382,0.245,0.2478,0.2517,0.2516,0.2527,0.253,0.2532,0.2531,0.2475,0.2526,0.2526,0.2526,0.2526,0.2526,0,0.1974,0.2003,0.2043,0.2096,0.2131,0.2141,0.2184,0.2212,0.2255,0.2294,0.2333,0.2388,0.2434,0.2473,0.2521,0.2545,0.2552,0.2556,0.2554,0.256,0.253,0.2518,0.2549,0.2549,0.2549,0.2549,0.2549,0.2549,0.1999,0.2048,0.2068,0.2133,0.2162,0.2211,0.2234,0.2267,0.2298,0.2358,0.2396,0.2422,0.2461,0.2511,0.2554,0.2564,0.2581,0.2583,0.2595,0.2565,0.2563,0.256,0.2549,0.2586,0.2586,0.2622,0.2623,0.2623]},{"header":{"parameterUnit":"m.s-1","parameterCategory":1,"la1":30.2991,"la2":30.254,"lo1":-89.0895,"lo2":-89.0444,"dy":0.0017,"dx":0.0017,"nx":28,"ny":28,"refTime":"2024-06-23T09:00:00:Z","depth":0,"parameterNumber":3,"parameterNumberName":"V-component_of_WINDS"},"data":[0,0,0,0,0,0,0,0,0,0,0,0,0,0,0,0,0,0,0,0,0,0,0,0,0,0,0,0,0,0,0,0,0,0,0,0,0,0,0,0,0,0,0,0,0,0,0,0,0,0,0,0,0,0,0,0,0,0,4.3968,4.3968,0,4.3944,4.3944,4.3944,4.3873,4.3872,4.387,4.3869,4.3846,4.3847,4.3848,0,0,0,0,0,0,0,0,0,0,0,0,0,4.3955,4.3956,4.3968,4.3968,4.3968,4.3944,4.3944,4.3944,4.3874,4.3872,4.387,4.3868,4.3846,4.3847,4.3848,0,0,0,0,0,0,0,0,0,0,0,0,0,4.3949,4.3956,4.3968,4.393,4.3926,4.3944,4.3944,4.3944,4.3874,4.3872,4.3869,4.3867,4.3846,4.3847,4.3848,4.3902,0,0,4.3852,4.3852,0,0,0,0,0,0,0,0,4.395,4.395,4.3936,4.3933,4.3928,4.3909,4.3931,4.393,4.3875,4.3894,4.3869,4.3866,4.3869,4.3868,4.3869,4.3901,4.39,4.3852,4.3853,4.3853,4.3854,0,0,0,0,0,0,0,4.395,4.3951,4.3959,4.3936,4.3931,4.3915,4.3911,4.393,4.3895,4.3892,4.3887,4.3885,4.3867,4.3868,4.3868,4.39,4.3852,4.3853,4.3854,4.3854,4.3975,4.3977,0,0,0,0,0,0,4.3956,4.3951,4.396,4.3958,4.3934,4.3917,4.3913,4.3918,4.3894,4.3889,4.3887,4.3882,4.3867,4.3867,4.3867,4.3928,4.3853,4.3854,4.3855,4.3972,4.3975,4.3978,0,0,0,0,0,0,4.3956,4.3957,4.396,4.3953,4.3952,4.3919,4.3926,4.3919,4.392,4.3891,4.3884,4.3895,4.3865,4.3865,4.3894,4.3927,4.3855,4.3856,4.397,4.3973,4.3977,4.4052,0,0,0,0,0,0,4.3956,4.3958,4.3977,4.3954,4.3953,4.3987,4.3928,4.392,4.3922,4.3915,4.3896,4.3891,4.3863,4.3892,4.3895,4.3927,4.3857,4.3966,4.3971,4.3976,4.4047,4.4058,4.4068,0,0,0,0,0,4.3956,4.4,4.3979,4.398,4.3977,4.3989,4.3989,4.3956,4.3925,4.3945,4.3926,4.3891,4.3923,4.3896,4.3898,4.3931,4.3964,4.397,4.3975,4.4042,4.4056,4.4068,0,0,0,0,0,0,4.4028,4.3996,4.3972,4.401,4.4003,4.3977,4.4001,4.3972,4.3973,4.3967,4.3927,4.3923,4.3957,4.3947,4.3918,4.3982,4.3938,4.3944,4.3988,4.4001,4.4011,4.4013,4.3858,0,0,0,0,0,4.4049,4.4061,4.4032,4.4069,4.4066,4.4035,4.4039,4.4014,4.4005,4.4002,4.3985,4.3979,4.3987,4.3993,4.3999,4.4045,4.404,4.4069,4.408,4.4089,4.4094,4.4118,4.4131,4.3996,4.3996,4.3996,0,0,4.4091,4.4075,4.4085,4.4083,4.4074,4.4089,4.4033,4.405,4.406,4.4005,4.403,4.4018,4.4008,4.4046,4.4061,4.4038,4.413,4.4096,4.4103,4.4104,4.4125,4.4138,4.4149,4.4,4.3999,4.3999,0,0,4.4175,4.4164,4.4193,4.4186,4.4174,4.4152,4.416,4.4139,4.4128,4.4153,4.4112,4.4124,4.4139,4.4134,4.4133,4.4216,4.4184,4.4219,4.4274,4.4298,4.4309,4.4318,4.4347,4.4359,4.4225,4.4225,4.4226,0,4.4229,4.4248,4.4212,4.4232,4.4232,4.4183,4.4212,4.4207,4.4198,4.42,4.4174,4.4192,4.4182,4.4217,4.4237,4.4238,4.4246,4.4221,4.431,4.4319,4.4327,4.4355,4.4366,4.423,4.4229,4.4229,4.4228,0,4.4316,4.433,4.4355,4.4346,4.435,4.4375,4.4343,4.4351,4.4326,4.4308,4.4334,4.432,4.4323,4.433,4.4306,4.4362,4.4348,4.4317,4.4271,4.4344,4.437,4.438,4.4236,4.4234,4.4233,4.4232,0,0,4.4444,4.4416,4.4426,4.4421,4.4404,4.4415,4.4438,4.444,4.4447,4.4443,4.4461,4.4476,4.4447,4.4446,4.4421,4.4442,4.4509,4.4408,4.4407,4.4427,4.457,4.4594,4.4607,4.4488,4.449,4.4491,4.4571,0,4.4524,4.456,4.4529,4.4572,4.4584,4.4538,4.4558,4.455,4.4534,4.4543,4.4525,4.4536,4.4497,4.4496,4.4515,4.4497,4.4537,4.4491,4.4505,4.4506,4.4509,4.462,4.4645,4.472,4.4581,4.4582,4.4584,0,4.4621,4.4621,4.4665,4.4645,4.4649,4.4668,4.4667,4.4676,4.4667,4.4654,4.4653,4.4623,4.4645,4.4601,4.463,4.46,4.4604,4.4596,4.4598,4.4598,4.4549,4.4623,4.4744,4.4755,4.4599,4.4598,4.4597,0,4.4711,4.4721,4.4749,4.4746,4.4724,4.4739,4.473,4.4718,4.4722,4.4722,4.4723,4.4726,4.4728,4.4731,4.4703,4.4673,4.4736,4.4689,4.4726,4.4727,4.4741,4.4741,4.4865,4.4745,4.4745,4.4744,4.4744,0,4.4802,4.4831,4.4788,4.4805,4.4837,4.48,4.4832,4.4819,4.4809,4.4824,4.4784,4.4798,4.476,4.4771,4.4749,4.4777,4.4778,4.4768,4.4762,4.4772,4.4773,4.4774,4.4768,4.4747,4.4747,4.4746,4.4746,0,4.4907,4.488,4.4907,4.4884,4.4879,4.4903,4.4883,4.4898,4.488,4.4898,4.4901,4.4872,4.4882,4.4854,4.4861,4.4846,4.4887,4.4872,4.489,4.4885,4.4924,4.492,4.5052,4.5068,4.4938,4.494,4.4941,0,4.4967,4.4988,4.4967,4.4974,4.4967,4.4978,4.4981,4.4947,4.4952,4.4943,4.496,4.4967,4.497,4.499,4.497,4.4975,4.496,4.5006,4.496,4.4969,4.496,4.4959,4.4961,4.5015,4.5017,4.5018,4.5019,0,4.5077,4.5063,4.5068,4.5069,4.5074,4.5073,4.507,4.5078,4.5041,4.5049,4.5059,4.5062,4.5068,4.5076,4.5077,4.5069,4.5038,4.5034,4.5042,4.5052,4.5061,4.5057,4.4915,4.5031,4.5029,4.5028,4.5028,4.5027,4.5161,4.5178,4.5166,4.5173,4.5167,4.5165,4.5178,4.5162,4.5169,4.5171,4.5151,4.5165,4.5156,4.5153,4.5149,4.516,4.5139,4.5152,4.5155,4.5159,4.5165,4.506,4.516,4.516,4.5159,4.5159,4.5159,0,4.5269,4.5259,4.5266,4.5263,4.5269,4.5239,4.5234,4.5242,4.5255,4.5249,4.5253,4.5265,4.5272,4.5253,4.5258,4.5271,4.5257,4.5273,4.5272,4.5271,4.5183,4.5175,4.5284,4.5284,4.5284,4.5284,4.5284,4.5284,4.5325,4.5352,4.5336,4.536,4.5349,4.5363,4.5362,4.5361,4.5355,4.537,4.5376,4.5363,4.5352,4.5356,4.5362,4.5356,4.5359,4.5381,4.537,4.5289,4.5277,4.5265,4.5257,4.5382,4.5382,4.5456,4.5457,4.5458]}]]